Hauptseite
METAR-TAF:

METAR-TAF

Flughäfen :

Elsenborn

Bütgenbach, Belgien

Breite: 50-28N, Länge: 006-11E, Höhe: 564 m

Beobachtung

Neuester Wetterbericht von vor 18 Minuten, um 23:25 UTC
Wind 5 kt aus Süd/Südwest
Temperatur 1°C
Luftfeuchtigkeit 86%
Luftdruck 1017 hPa
Sichtweite 10 km oder mehr

METAR: EBLB 282325Z AUTO 21005KT 9999 NCD 01/M01 Q1017 BLU

Zeit: 00:43 (23:43 UTC)


TAF: fehlend

Wetterbeobachtungen und Prognosen von mehr als 4000 Flughäfen (METAR und TAF Bericht).

Die verfügbaren Stationen werden durch gelbe und rote Markierungen auf der Karte dargestellt.

Führen Sie die Maus auf sie, um den Namen der Station zu sehen.

Darauf klicken, um die Beobachtung von Wetterbeobachtungen und Prognosen zu sehen.

Um die Karte zu ändern : klicken Sie auf den grünen Tasten mit einem schwarzen Kreuz Zum Vergrößern, auf den grünen Button mit einem Gedankenstrich zu verkleinern, oder auf die grünen Pfeile für benachbarte Karten.


METAR-TAF: